{"data":{"norad_id":62707,"intl_designator":"2025-009DC","name":"ICEYE-X44","alt_names":[],"object_type":"PAYLOAD","status":"ACTIVE","operator":null,"country":"UAE","launch_date":"2025-01-14","launch_site_code":"AFWTR","launch_vehicle":null,"mission":null,"orbit_class":"UNKNOWN","rcs_meters":null,"size_class":null,"mass_kg":null,"dimensions":null,"purposes":[],"wikipedia_slug":null,"has_3d_model":false,"image_url":null,"decayed_at":null,"tle_current":{"epoch":"2026-09-22T14:08:38.385888Z","epoch_age_seconds":139358,"freshness":"FRESH","line1":"1 62707U 25009DC  26265.58933317  .00001425  00000+0  13062-3 0  9994","line2":"2 62707  97.7000 343.1697 0002230 123.1705 236.9731 14.96461234114508","mean_motion":14.96461234,"eccentricity":0.000223,"inclination_deg":97.7,"raan_deg":343.1697,"arg_perigee_deg":123.1705,"mean_anomaly_deg":236.9731,"bstar":0.00013062,"rev_number":11450,"period_min":96.227016596409,"perigee_km":576.28972570652,"apogee_km":579.39209185384,"semimajor_km":6955.9779087802,"source":"CELESTRAK","updated_at":"2026-09-23T09:00:21.587288Z"}}}